STARLINK-30277 (57645 NORAD) Tracking and Keplerian Element Data

This shows tracking and keplerian element data for the satellite.

Feedback or suggestion? Click here.




ElementValue
Catalog57645
NameSTARLINK-30277
Epoch Orbit2385
Epoch Day13.12999634
Epoch Year2024
RAAN48.5059
Inclination43.0026
Eccentricity9.4E-05
Argument of Perigee272.9445
Mean Anonmoly87.129
Mean Motion15.02542404
Decay Rate0.00014157
L11 57645U 23122P 24013.12999634 .00014157 00000+0 10608-2 0 9994
L22 57645 43.0026 48.5059 0000940 272.9445 87.1290 15.02542404 23853



Live tracking and technical data element details for STARLINK-30277 (NORAD 57645). STARLINK-30277 can be tracked NOW for your location showing map with azimuth and elevation plus other details from your city location.







IsCatalogInMostPopularTable: catalog: 57645, numindb: 34
Update: records affected: 1



GetName: 57645 STARLINK-30277

Hit Count: updated at: Thu, 22 Feb 2024 00:07:44 GMT